time, Switch, Flow(0), Analog(2)
yyyy/mm/dd HH:MM:SS.fff, True=FILTERED|False=TOTAL, L/min, V
2023/07/07 07:00:01.614, True, 4.717, 0.155184
2023/07/07 07:00:02.118, True, 4.974, 0.157168
2023/07/07 07:00:02.623, True, 4.311, 0.153506
2023/07/07 07:00:03.127, True, 4.649, 0.156939
2023/07/07 07:00:03.623, True, 3.701, 0.154879
2023/07/07 07:00:04.126, True, 2.653, 0.154726
2023/07/07 07:00:04.623, True, 1.348, 0.155795
2023/07/07 07:00:05.127, True, 0.996, 0.158236
2023/07/07 07:00:05.630, True, 0.662, 0.156558
2023/07/07 07:00:06.126, True, 0.674, 0.155718
2023/07/07 07:00:06.631, True, 0.996, 0.155489
2023/07/07 07:00:07.134, True, 0.663, 0.157015
2023/07/07 07:00:07.639, True, 0.663, 0.153964
2023/07/07 07:00:08.135, True, 0.674, 0.156023
2023/07/07 07:00:08.638, True, 0.663, 0.153201
2023/07/07 07:00:09.143, True, 0.993, 0.156786
2023/07/07 07:00:09.638, True, 0.675, 0.154498
2023/07/07 07:00:10.143, True, 0.663, 0.156481
2023/07/07 07:00:10.639, True, 0.673, 0.155566
2023/07/07 07:00:11.143, True, 0.997, 0.155413
2023/07/07 07:00:11.646, True, 0.662, 0.155489
2023/07/07 07:00:12.143, True, 0.674, 0.155108
2023/07/07 07:00:12.647, True, 0.663, 0.156023
2023/07/07 07:00:13.150, True, 0.663, 0.153735
2023/07/07 07:00:13.655, True, 0.995, 0.155871
2023/07/07 07:00:14.151, True, 0.674, 0.155261
2023/07/07 07:00:14.655, True, 0.663, 0.155566
2023/07/07 07:00:15.159, True, 0.663, 0.154040
2023/07/07 07:00:15.654, True, 0.674, 0.153506
2023/07/07 07:00:16.159, True, 0.663, 0.155642
2023/07/07 07:00:16.663, True, 0.995, 0.155337
2023/07/07 07:00:17.159, True, 0.674, 0.154803
2023/07/07 07:00:17.663, True, 0.663, 0.155032
2023/07/07 07:00:18.167, True, 0.663, 0.155108
2023/07/07 07:00:18.663, True, 0.674, 0.157321
2023/07/07 07:00:19.167, True, 0.995, 0.153964
2023/07/07 07:00:19.671, True, 0.663, 0.157321
2023/07/07 07:00:20.167, True, 0.674, 0.157092
2023/07/07 07:00:20.671, True, 0.663, 0.154650
2023/07/07 07:00:21.174, True, 0.663, 0.155718
2023/07/07 07:00:21.671, True, 1.011, 0.155642
2023/07/07 07:00:22.175, True, 0.663, 0.156023
2023/07/07 07:00:22.679, True, 0.663, 0.155566
2023/07/07 07:00:23.175, True, 0.674, 0.156176
2023/07/07 07:00:23.678, True, 0.663, 0.155261
2023/07/07 07:00:24.183, True, 0.995, 0.155718
2023/07/07 07:00:24.678, True, 0.674, 0.155947
2023/07/07 07:00:25.182, True, 0.663, 0.155413
2023/07/07 07:00:25.687, True, 0.663, 0.155718
2023/07/07 07:00:26.183, True, 0.674, 0.153735
2023/07/07 07:00:26.687, True, 0.663, 0.156023
2023/07/07 07:00:27.191, True, 0.995, 0.155032
2023/07/07 07:00:27.687, True, 0.674, 0.156786
2023/07/07 07:00:28.190, True, 0.663, 0.154879
2023/07/07 07:00:28.695, True, 0.663, 0.155108
2023/07/07 07:00:29.191, True, 0.674, 0.156023
2023/07/07 07:00:29.695, True, 0.663, 0.154650
2023/07/07 07:00:30.198, True, 0.663, 0.154726
2023/07/07 07:00:30.695, True, 0.674, 0.153048
2023/07/07 07:00:31.199, True, 0.995, 0.155413
2023/07/07 07:00:31.703, True, 0.663, 0.157244
2023/07/07 07:00:32.198, True, 0.674, 0.155108
2023/07/07 07:00:32.703, True, 0.663, 0.155261
2023/07/07 07:00:33.207, True, 0.663, 0.153964
2023/07/07 07:00:33.703, True, 1.011, 0.155489
2023/07/07 07:00:34.207, True, 0.663, 0.154040
2023/07/07 07:00:34.711, True, 0.663, 0.157321
2023/07/07 07:00:35.207, True, 0.674, 0.155795
2023/07/07 07:00:35.711, True, 0.663, 0.153582
2023/07/07 07:00:36.215, True, 0.663, 0.154879
2023/07/07 07:00:36.711, True, 0.674, 0.154803
2023/07/07 07:00:37.215, True, 0.994, 0.155947
2023/07/07 07:00:37.719, True, 0.663, 0.153735
2023/07/07 07:00:38.215, True, 0.674, 0.154574
2023/07/07 07:00:38.719, True, 0.663, 0.155337
2023/07/07 07:00:39.214, True, 0.675, 0.155032
2023/07/07 07:00:39.719, True, 0.662, 0.154498
2023/07/07 07:00:40.223, True, 0.663, 0.154955
2023/07/07 07:00:40.718, True, 0.674, 0.154421
2023/07/07 07:00:41.223, True, 0.995, 0.156329
2023/07/07 07:00:41.727, True, 0.663, 0.155108
2023/07/07 07:00:42.223, True, 0.674, 0.154879
2023/07/07 07:00:42.727, True, 0.663, 0.154955
2023/07/07 07:00:43.231, True, 0.995, 0.157397
2023/07/07 07:00:43.727, True, 0.674, 0.156481
2023/07/07 07:00:44.231, True, 0.663, 0.154650
2023/07/07 07:00:44.735, True, 0.663, 0.155184
2023/07/07 07:00:45.231, True, 0.674, 0.155337
2023/07/07 07:00:45.735, True, 0.663, 0.154345
2023/07/07 07:00:46.239, True, 0.996, 0.154955
2023/07/07 07:00:46.743, True, 0.663, 0.156329
2023/07/07 07:00:47.239, True, 0.674, 0.154192
2023/07/07 07:00:47.743, True, 0.663, 0.153887
2023/07/07 07:00:48.246, True, 0.663, 0.155947
2023/07/07 07:00:48.742, True, 1.011, 0.155032
2023/07/07 07:00:49.247, True, 0.663, 0.153735
2023/07/07 07:00:49.750, True, 0.663, 0.153582
2023/07/07 07:00:50.246, True, 0.674, 0.153506
2023/07/07 07:00:50.751, True, 0.663, 0.157778
2023/07/07 07:00:51.254, True, 0.995, 0.153811
2023/07/07 07:00:51.750, True, 0.674, 0.155947
2023/07/07 07:00:52.255, True, 0.663, 0.155337
2023/07/07 07:00:52.758, True, 0.664, 0.155795
2023/07/07 07:00:53.254, True, 0.673, 0.154498
2023/07/07 07:00:53.759, True, 0.663, 0.157473
2023/07/07 07:00:54.255, True, 0.674, 0.155566
2023/07/07 07:00:54.758, True, 0.663, 0.156558
2023/07/07 07:00:55.263, True, 0.663, 0.154955
2023/07/07 07:00:55.759, True, 1.011, 0.157702
2023/07/07 07:00:56.263, True, 0.663, 0.156481
2023/07/07 07:00:56.767, True, 0.663, 0.154803
2023/07/07 07:00:57.263, True, 0.674, 0.155108
2023/07/07 07:00:57.767, True, 0.995, 0.154421
2023/07/07 07:00:58.263, True, 0.674, 0.155184
2023/07/07 07:00:58.767, True, 0.663, 0.155032
2023/07/07 07:00:59.271, True, 0.663, 0.154498
2023/07/07 07:00:59.767, True, 1.010, 0.156329
2023/07/07 07:01:00.271, True, 0.663, 0.153811
2023/07/07 07:01:00.775, True, 0.663, 0.152895
2023/07/07 07:01:01.271, True, 0.674, 0.155947
2023/07/07 07:01:01.775, True, 0.663, 0.156023
2023/07/07 07:01:02.279, True, 0.995, 0.154040
2023/07/07 07:01:02.775, True, 0.674, 0.153735
2023/07/07 07:01:03.279, True, 0.663, 0.155261
2023/07/07 07:01:03.775, True, 0.674, 0.153811
2023/07/07 07:01:04.279, True, 0.663, 0.153658
2023/07/07 07:01:04.783, True, 0.664, 0.156405
2023/07/07 07:01:05.279, True, 1.010, 0.153124
2023/07/07 07:01:05.783, True, 0.664, 0.154421
2023/07/07 07:01:06.287, True, 0.663, 0.152819
2023/07/07 07:01:06.783, True, 0.674, 0.156405
2023/07/07 07:01:07.287, True, 0.663, 0.154574
2023/07/07 07:01:07.790, True, 0.663, 0.154192
2023/07/07 07:01:08.287, True, 0.674, 0.153429
2023/07/07 07:01:08.791, True, 0.663, 0.154498
2023/07/07 07:01:09.295, True, 0.663, 0.154650
2023/07/07 07:01:09.791, True, 1.011, 0.155413
2023/07/07 07:01:10.295, True, 0.663, 0.157397
2023/07/07 07:01:10.791, True, 0.674, 0.157549
2023/07/07 07:01:11.295, True, 0.663, 0.157168
2023/07/07 07:01:11.799, True, 0.663, 0.152667
2023/07/07 07:01:12.295, True, 0.674, 0.157015
2023/07/07 07:01:12.799, True, 0.996, 0.154574
2023/07/07 07:01:13.303, True, 0.662, 0.156176
2023/07/07 07:01:13.798, True, 0.674, 0.156176
2023/07/07 07:01:14.302, True, 0.663, 0.155489
2023/07/07 07:01:14.807, True, 0.663, 0.154879
2023/07/07 07:01:15.303, True, 0.674, 0.151598
2023/07/07 07:01:15.807, True, 0.995, 0.154116
2023/07/07 07:01:16.311, True, 0.663, 0.157244
2023/07/07 07:01:16.807, True, 0.674, 0.155489
2023/07/07 07:01:17.311, True, 0.663, 0.156329
2023/07/07 07:01:17.815, True, 0.663, 0.155947
2023/07/07 07:01:18.319, True, 0.995, 0.154498
2023/07/07 07:01:18.815, True, 0.674, 0.157855
2023/07/07 07:01:19.319, True, 0.664, 0.155413
2023/07/07 07:01:19.823, True, 0.663, 0.155489
2023/07/07 07:01:20.319, True, 0.672, 0.155718
2023/07/07 07:01:20.823, True, 0.995, 0.156252
2023/07/07 07:01:21.327, True, 0.664, 0.156558
2023/07/07 07:01:21.823, True, 0.674, 0.155947
2023/07/07 07:01:22.327, True, 0.663, 0.156176
2023/07/07 07:01:22.830, True, 0.995, 0.157015
2023/07/07 07:01:23.327, True, 0.674, 0.154879
2023/07/07 07:01:23.831, True, 0.664, 0.156634
2023/07/07 07:01:24.335, True, 0.662, 0.159152
2023/07/07 07:01:24.831, True, 0.674, 0.159152
2023/07/07 07:01:25.335, True, 0.995, 0.159838
2023/07/07 07:01:25.839, True, 0.663, 0.161517
2023/07/07 07:01:26.335, True, 0.674, 0.157626
2023/07/07 07:01:26.839, True, 0.663, 0.158465
2023/07/07 07:01:27.342, True, 0.663, 0.158389
2023/07/07 07:01:27.839, True, 0.675, 0.158694
2023/07/07 07:01:28.343, True, 0.994, 0.157931
2023/07/07 07:01:28.847, True, 0.663, 0.156710
2023/07/07 07:01:29.342, True, 0.675, 0.158312
2023/07/07 07:01:29.846, True, 0.662, 0.159152
2023/07/07 07:01:30.351, True, 0.664, 0.159380
2023/07/07 07:01:30.847, True, 0.673, 0.157931
2023/07/07 07:01:31.350, True, 0.995, 0.159457
2023/07/07 07:01:31.847, True, 0.674, 0.159686
2023/07/07 07:01:32.351, True, 0.663, 0.159609
2023/07/07 07:01:32.854, True, 0.664, 0.158923
2023/07/07 07:01:33.350, True, 0.673, 0.161593
2023/07/07 07:01:33.855, True, 0.663, 0.158465
2023/07/07 07:01:34.359, True, 0.663, 0.160067
2023/07/07 07:01:34.863, True, 0.663, 0.158312
2023/07/07 07:01:35.359, True, 0.674, 0.157702
2023/07/07 07:01:35.863, True, 0.995, 0.160067
2023/07/07 07:01:36.359, True, 0.675, 0.160906
2023/07/07 07:01:36.862, True, 0.662, 0.158999
2023/07/07 07:01:37.367, True, 0.663, 0.160143
2023/07/07 07:01:37.863, True, 0.674, 0.159457
2023/07/07 07:01:38.367, True, 0.664, 0.159609
2023/07/07 07:01:38.871, True, 0.663, 0.159457
2023/07/07 07:01:39.367, True, 1.011, 0.160449
2023/07/07 07:01:39.871, True, 0.664, 0.158999
2023/07/07 07:01:40.374, True, 0.663, 0.159686
2023/07/07 07:01:40.870, True, 0.674, 0.159915
2023/07/07 07:01:41.375, True, 0.664, 0.160525
2023/07/07 07:01:41.879, True, 0.995, 0.162814
2023/07/07 07:01:42.375, True, 0.673, 0.161364
2023/07/07 07:01:42.879, True, 0.664, 0.159609
2023/07/07 07:01:43.375, True, 0.674, 0.159075
2023/07/07 07:01:43.879, True, 0.662, 0.160601
2023/07/07 07:01:44.383, True, 0.996, 0.161746
2023/07/07 07:01:44.879, True, 0.674, 0.160296
2023/07/07 07:01:45.383, True, 0.663, 0.160983
2023/07/07 07:01:45.887, True, 0.663, 0.161135
2023/07/07 07:01:46.382, True, 0.675, 0.162814
2023/07/07 07:01:46.887, True, 0.663, 0.160296
2023/07/07 07:01:47.391, True, 0.662, 0.161517
2023/07/07 07:01:47.895, True, 0.663, 0.162737
2023/07/07 07:01:48.391, True, 0.675, 0.162966
2023/07/07 07:01:48.895, True, 0.993, 0.160296
2023/07/07 07:01:49.399, True, 0.663, 0.161059
2023/07/07 07:01:49.895, True, 0.674, 0.160601
2023/07/07 07:01:50.399, True, 0.663, 0.161822
2023/07/07 07:01:50.903, True, 0.663, 0.161898
2023/07/07 07:01:51.399, True, 0.674, 0.161975
2023/07/07 07:01:51.903, True, 0.663, 0.160754
2023/07/07 07:01:52.407, True, 0.663, 0.162051
2023/07/07 07:01:52.903, True, 0.675, 0.162127
2023/07/07 07:01:53.407, True, 0.662, 0.160220
2023/07/07 07:01:53.911, True, 0.663, 0.160678
2023/07/07 07:01:54.407, True, 0.674, 0.160906
2023/07/07 07:01:54.911, True, 0.995, 0.161440
2023/07/07 07:01:55.415, True, 0.663, 0.161212
2023/07/07 07:01:55.910, True, 0.675, 0.161517
2023/07/07 07:01:56.415, True, 0.663, 0.161898
2023/07/07 07:01:56.919, True, 0.662, 0.160830
2023/07/07 07:01:57.415, True, 0.674, 0.162051
2023/07/07 07:01:57.919, True, 0.663, 0.160983
2023/07/07 07:01:58.423, True, 0.995, 0.161898
2023/07/07 07:01:58.919, True, 0.674, 0.163195
2023/07/07 07:01:59.423, True, 0.663, 0.160067
2023/07/07 07:01:59.919, True, 0.674, 0.162203
2023/07/07 07:02:00.423, True, 0.664, 0.160449
2023/07/07 07:02:00.927, True, 0.663, 0.162585
2023/07/07 07:02:01.431, True, 0.663, 0.161288
2023/07/07 07:02:01.927, True, 1.011, 0.161822
2023/07/07 07:02:02.431, True, 0.663, 0.160906
2023/07/07 07:02:02.927, True, 0.674, 0.160601
2023/07/07 07:02:03.431, True, 0.663, 0.159838
2023/07/07 07:02:03.935, True, 0.663, 0.161822
2023/07/07 07:02:04.431, True, 0.674, 0.163958
2023/07/07 07:02:04.935, True, 0.663, 0.161898
2023/07/07 07:02:05.439, True, 0.995, 0.161517
2023/07/07 07:02:05.935, True, 0.674, 0.160983
2023/07/07 07:02:06.439, True, 0.663, 0.163500
2023/07/07 07:02:06.943, True, 0.663, 0.160830
2023/07/07 07:02:07.439, True, 0.674, 0.160906
2023/07/07 07:02:07.943, True, 0.663, 0.161669
2023/07/07 07:02:08.447, True, 0.663, 0.163958
2023/07/07 07:02:08.943, True, 0.674, 0.160449
2023/07/07 07:02:09.447, True, 0.663, 0.167163
2023/07/07 07:02:09.951, True, 0.995, 0.161212
2023/07/07 07:02:10.447, True, 0.674, 0.159838
2023/07/07 07:02:10.950, True, 0.663, 0.161593
2023/07/07 07:02:11.455, True, 0.663, 0.162432
2023/07/07 07:02:11.951, True, 0.674, 0.162509
2023/07/07 07:02:12.455, True, 0.663, 0.163653
2023/07/07 07:02:12.959, True, 0.663, 0.162127
2023/07/07 07:02:13.455, True, 0.674, 0.163424
2023/07/07 07:02:13.959, True, 0.995, 0.163653
2023/07/07 07:02:14.463, True, 0.664, 0.159762
2023/07/07 07:02:14.959, True, 0.674, 0.164034
2023/07/07 07:02:15.463, True, 0.663, 0.162509
2023/07/07 07:02:15.967, True, 0.664, 0.162280
2023/07/07 07:02:16.463, True, 0.674, 0.164111
2023/07/07 07:02:16.967, True, 0.662, 0.163729
2023/07/07 07:02:17.471, True, 0.663, 0.164416
2023/07/07 07:02:17.967, True, 1.011, 0.163348
2023/07/07 07:02:18.471, True, 0.663, 0.162966
2023/07/07 07:02:18.975, True, 0.663, 0.161746
2023/07/07 07:02:19.471, True, 0.674, 0.163272
2023/07/07 07:02:19.975, True, 0.663, 0.162203
2023/07/07 07:02:20.479, True, 0.997, 0.163272
2023/07/07 07:02:20.975, True, 0.673, 0.161364
2023/07/07 07:02:21.479, True, 0.663, 0.162356
2023/07/07 07:02:21.983, True, 0.662, 0.162509
2023/07/07 07:02:22.479, True, 0.674, 0.164950
2023/07/07 07:02:22.983, True, 0.663, 0.162356
2023/07/07 07:02:23.487, True, 0.663, 0.160449
2023/07/07 07:02:23.983, True, 0.674, 0.160983
2023/07/07 07:02:24.487, True, 0.995, 0.160906
2023/07/07 07:02:24.991, True, 0.664, 0.160983
2023/07/07 07:02:25.487, True, 0.673, 0.163577
2023/07/07 07:02:25.991, True, 0.663, 0.163195
2023/07/07 07:02:26.495, True, 0.663, 0.162585
2023/07/07 07:02:26.991, True, 0.674, 0.165560
2023/07/07 07:02:27.495, True, 0.663, 0.161975
2023/07/07 07:02:27.999, True, 0.663, 0.163195
2023/07/07 07:02:28.495, True, 1.011, 0.160449
2023/07/07 07:02:28.999, True, 0.663, 0.164797
2023/07/07 07:02:29.503, True, 0.663, 0.162966
2023/07/07 07:02:30.007, True, 0.663, 0.162432
2023/07/07 07:02:30.503, True, 1.011, 0.162966
2023/07/07 07:02:31.007, True, 0.664, 0.163195
2023/07/07 07:02:31.503, True, 0.674, 0.161898
2023/07/07 07:02:32.007, True, 0.662, 0.163729
2023/07/07 07:02:32.511, True, 0.663, 0.161898
2023/07/07 07:02:33.007, True, 0.674, 0.164187
2023/07/07 07:02:33.511, True, 0.995, 0.162585
2023/07/07 07:02:34.015, True, 0.665, 0.161746
2023/07/07 07:02:34.518, True, 0.662, 0.164340
2023/07/07 07:02:35.015, True, 0.673, 0.169375
2023/07/07 07:02:35.519, True, 0.663, 0.164034
2023/07/07 07:02:36.023, True, 0.664, 0.162814
2023/07/07 07:02:36.519, True, 0.673, 0.163577
2023/07/07 07:02:37.023, True, 0.996, 0.161593
2023/07/07 07:02:37.527, True, 0.663, 0.163577
2023/07/07 07:02:38.031, True, 0.663, 0.161669
2023/07/07 07:02:38.526, True, 0.675, 0.163348
2023/07/07 07:02:39.031, True, 0.662, 0.162127
2023/07/07 07:02:39.535, True, 0.663, 0.163119
2023/07/07 07:02:40.031, True, 0.674, 0.162051
2023/07/07 07:02:40.535, True, 0.663, 0.162585
2023/07/07 07:02:41.031, True, 0.674, 0.162432
2023/07/07 07:02:41.535, True, 0.663, 0.163424
2023/07/07 07:02:42.039, True, 0.663, 0.163119
2023/07/07 07:02:42.543, True, 0.995, 0.163272
2023/07/07 07:02:43.039, True, 0.675, 0.159762
2023/07/07 07:02:43.543, True, 0.662, 0.161975
2023/07/07 07:02:44.038, True, 0.674, 0.162661
2023/07/07 07:02:44.543, True, 0.664, 0.162127
2023/07/07 07:02:45.047, True, 0.662, 0.166552
2023/07/07 07:02:45.551, True, 0.663, 0.162585
2023/07/07 07:02:46.047, True, 0.674, 0.163119
2023/07/07 07:02:46.551, True, 0.663, 0.165408
2023/07/07 07:02:47.046, True, 1.011, 0.162890
2023/07/07 07:02:47.550, True, 0.663, 0.163119
2023/07/07 07:02:48.055, True, 0.663, 0.162203
2023/07/07 07:02:48.551, True, 0.675, 0.163729
2023/07/07 07:02:49.055, True, 0.662, 0.160754
2023/07/07 07:02:49.559, True, 0.663, 0.163119
2023/07/07 07:02:50.055, True, 0.674, 0.160296
2023/07/07 07:02:50.559, True, 0.995, 0.162432
2023/07/07 07:02:51.063, True, 0.664, 0.164111
2023/07/07 07:02:51.567, True, 0.662, 0.162432
2023/07/07 07:02:52.063, True, 0.674, 0.162432
2023/07/07 07:02:52.567, True, 0.663, 0.162356
2023/07/07 07:02:53.063, True, 0.674, 0.161669
2023/07/07 07:02:53.566, True, 0.663, 0.163272
2023/07/07 07:02:54.070, True, 0.664, 0.161975
2023/07/07 07:02:54.575, True, 0.994, 0.163272
2023/07/07 07:02:55.071, True, 0.674, 0.162890
2023/07/07 07:02:55.575, True, 0.663, 0.160754
2023/07/07 07:02:56.079, True, 0.663, 0.161898
2023/07/07 07:02:56.575, True, 0.674, 0.162966
2023/07/07 07:02:57.079, True, 0.663, 0.162432
2023/07/07 07:02:57.583, True, 0.663, 0.161975
2023/07/07 07:02:58.079, True, 1.011, 0.163729
2023/07/07 07:02:58.583, True, 0.663, 0.161059
2023/07/07 07:02:59.079, True, 0.674, 0.160906
2023/07/07 07:02:59.583, True, 0.663, 0.161517
2023/07/07 07:03:00.087, True, 0.664, 0.161517
2023/07/07 07:03:00.591, True, 0.663, 0.165103
2023/07/07 07:03:01.087, True, 0.674, 0.161669
2023/07/07 07:03:01.591, True, 0.664, 0.160067
2023/07/07 07:03:02.095, True, 0.664, 0.163577
2023/07/07 07:03:02.598, True, 0.662, 0.162432
2023/07/07 07:03:03.095, True, 0.673, 0.163195
2023/07/07 07:03:03.598, True, 0.663, 0.162661
2023/07/07 07:03:04.102, True, 0.664, 0.161898
2023/07/07 07:03:04.598, True, 0.674, 0.163195
2023/07/07 07:03:05.102, True, 0.662, 0.163500
2023/07/07 07:03:05.606, True, 0.996, 0.161669
2023/07/07 07:03:06.102, True, 0.674, 0.163577
2023/07/07 07:03:06.607, True, 0.662, 0.161212
2023/07/07 07:03:07.111, True, 0.664, 0.161059
2023/07/07 07:03:07.606, True, 0.674, 0.163729
2023/07/07 07:03:08.111, True, 0.662, 0.162585
2023/07/07 07:03:08.615, True, 0.996, 0.163424
2023/07/07 07:03:09.111, True, 0.674, 0.164950
2023/07/07 07:03:09.615, True, 0.331, 0.161669
2023/07/07 07:03:10.111, True, 0.674, 0.162661
2023/07/07 07:03:10.614, True, 0.995, 0.160601
2023/07/07 07:03:11.118, True, 0.663, 0.161440
2023/07/07 07:03:11.623, True, 0.664, 0.161364
2023/07/07 07:03:12.118, True, 0.674, 0.163348
2023/07/07 07:03:12.623, True, 0.663, 0.162203
2023/07/07 07:03:13.127, True, 0.662, 0.161212
2023/07/07 07:03:13.623, True, 0.675, 0.161288
2023/07/07 07:03:14.127, True, 0.663, 0.161212
2023/07/07 07:03:14.631, True, 0.663, 0.163577
2023/07/07 07:03:15.127, True, 0.674, 0.161135
2023/07/07 07:03:15.631, True, 0.995, 0.162814
2023/07/07 07:03:16.135, True, 0.664, 0.162737
2023/07/07 07:03:16.631, True, 0.673, 0.161212
2023/07/07 07:03:17.135, True, 0.663, 0.161440
2023/07/07 07:03:17.639, True, 0.664, 0.161975
2023/07/07 07:03:18.143, True, 0.663, 0.161288
2023/07/07 07:03:18.639, True, 0.674, 0.161593
2023/07/07 07:03:19.143, True, 0.995, 0.160983
2023/07/07 07:03:19.639, True, 0.674, 0.163653
2023/07/07 07:03:20.143, True, 0.665, 0.162814
2023/07/07 07:03:20.647, True, 0.662, 0.162814
2023/07/07 07:03:21.143, True, 0.674, 0.161975
2023/07/07 07:03:21.647, True, 0.663, 0.160525
2023/07/07 07:03:22.151, True, 0.663, 0.161288
2023/07/07 07:03:22.647, True, 1.011, 0.162051
2023/07/07 07:03:23.151, True, 0.663, 0.162280
2023/07/07 07:03:23.655, True, 0.663, 0.160906
2023/07/07 07:03:24.151, True, 0.675, 0.162203
2023/07/07 07:03:24.655, True, 0.663, 0.163272
2023/07/07 07:03:25.159, True, 0.663, 0.160830
2023/07/07 07:03:25.655, True, 0.674, 0.161746
2023/07/07 07:03:26.159, True, 0.663, 0.162356
2023/07/07 07:03:26.663, True, 0.663, 0.161364
2023/07/07 07:03:27.159, True, 0.674, 0.162280
2023/07/07 07:03:27.663, True, 0.663, 0.161593
2023/07/07 07:03:28.167, True, 0.995, 0.163653
2023/07/07 07:03:28.662, True, 0.674, 0.162585
2023/07/07 07:03:29.167, True, 0.663, 0.163653
2023/07/07 07:03:29.671, True, 0.663, 0.160678
2023/07/07 07:03:30.167, True, 0.674, 0.164111
2023/07/07 07:03:30.671, True, 0.663, 0.161440
2023/07/07 07:03:31.175, True, 0.663, 0.162585
2023/07/07 07:03:31.671, True, 1.011, 0.161288
2023/07/07 07:03:32.175, True, 0.663, 0.162280
2023/07/07 07:03:32.679, True, 0.663, 0.162051
2023/07/07 07:03:33.175, True, 0.674, 0.161746
2023/07/07 07:03:33.679, True, 0.663, 0.162890
2023/07/07 07:03:34.183, True, 0.664, 0.161135
2023/07/07 07:03:34.679, True, 0.673, 0.161059
2023/07/07 07:03:35.183, True, 0.664, 0.162432
2023/07/07 07:03:35.687, True, 0.662, 0.161975
2023/07/07 07:03:36.183, True, 0.674, 0.164416
2023/07/07 07:03:36.687, True, 0.995, 0.161135
2023/07/07 07:03:37.191, True, 0.663, 0.164263
2023/07/07 07:03:37.687, True, 0.674, 0.163806
2023/07/07 07:03:38.191, True, 0.663, 0.162203
2023/07/07 07:03:38.695, True, 0.663, 0.163577
2023/07/07 07:03:39.191, True, 0.674, 0.161135
2023/07/07 07:03:39.695, True, 0.663, 0.162509
2023/07/07 07:03:40.199, True, 0.663, 0.161822
2023/07/07 07:03:40.695, True, 0.674, 0.161059
2023/07/07 07:03:41.199, True, 0.663, 0.161135
2023/07/07 07:03:41.702, True, 0.663, 0.164263
2023/07/07 07:03:42.207, True, 0.995, 0.160983
2023/07/07 07:03:42.703, True, 0.674, 0.162356
2023/07/07 07:03:43.207, True, 0.663, 0.162203
2023/07/07 07:03:43.711, True, 0.663, 0.162509
2023/07/07 07:03:44.207, True, 0.674, 0.161975
2023/07/07 07:03:44.710, True, 0.663, 0.161746
2023/07/07 07:03:45.207, True, 0.674, 0.162356
2023/07/07 07:03:45.711, True, 0.663, 0.159991
2023/07/07 07:03:46.215, True, 0.663, 0.161364
2023/07/07 07:03:46.711, True, 0.674, 0.161975
2023/07/07 07:03:47.215, True, 0.664, 0.159838
2023/07/07 07:03:47.719, True, 0.994, 0.160601
2023/07/07 07:03:48.215, True, 0.674, 0.162814
2023/07/07 07:03:48.719, True, 0.665, 0.161517
2023/07/07 07:03:49.223, True, 0.662, 0.163958
2023/07/07 07:03:49.719, True, 0.674, 0.161517
2023/07/07 07:03:50.223, True, 0.663, 0.161898
2023/07/07 07:03:50.727, True, 0.995, 0.162966
2023/07/07 07:03:51.223, True, 0.674, 0.162127
2023/07/07 07:03:51.727, True, 0.663, 0.160830
2023/07/07 07:03:52.231, True, 0.663, 0.161746
2023/07/07 07:03:52.727, True, 0.674, 0.160754
2023/07/07 07:03:53.231, True, 0.663, 0.162509
2023/07/07 07:03:53.735, True, 0.663, 0.162203
2023/07/07 07:03:54.231, True, 0.674, 0.161746
2023/07/07 07:03:54.735, True, 0.663, 0.162814
2023/07/07 07:03:55.239, True, 0.664, 0.160067
2023/07/07 07:03:55.735, True, 0.673, 0.160449
2023/07/07 07:03:56.239, True, 0.995, 0.162814
2023/07/07 07:03:56.743, True, 0.663, 0.161669
2023/07/07 07:03:57.239, True, 0.674, 0.162890
2023/07/07 07:03:57.743, True, 0.663, 0.162127
2023/07/07 07:03:58.247, True, 0.663, 0.161440
2023/07/07 07:03:58.743, True, 0.674, 0.161364
2023/07/07 07:03:59.247, True, 0.663, 0.162432
2023/07/07 07:03:59.751, True, 0.663, 0.162432
2023/07/07 07:04:00.247, True, 0.674, 0.159152
2023/07/07 07:04:00.751, True, 0.663, 0.160220
2023/07/07 07:04:01.255, True, 0.663, 0.162432
2023/07/07 07:04:01.751, True, 0.674, 0.162509
2023/07/07 07:04:02.255, True, 0.995, 0.160906
2023/07/07 07:04:02.759, True, 0.663, 0.161364
2023/07/07 07:04:03.255, True, 0.675, 0.161593
2023/07/07 07:04:03.759, True, 0.663, 0.160372
2023/07/07 07:04:04.263, True, 0.663, 0.160220
2023/07/07 07:04:04.767, True, 0.664, 0.163195
2023/07/07 07:04:05.263, True, 0.673, 0.161746
2023/07/07 07:04:05.767, True, 0.663, 0.161517
2023/07/07 07:04:06.263, True, 0.674, 0.162585
2023/07/07 07:04:06.767, True, 0.663, 0.160372
2023/07/07 07:04:07.271, True, 0.995, 0.161440
2023/07/07 07:04:07.775, True, 0.664, 0.160678
2023/07/07 07:04:08.271, True, 0.673, 0.160372
2023/07/07 07:04:08.775, True, 0.663, 0.160830
2023/07/07 07:04:09.279, True, 0.663, 0.161288
2023/07/07 07:04:09.775, True, 0.674, 0.162814
2023/07/07 07:04:10.279, True, 0.663, 0.161440
2023/07/07 07:04:10.783, True, 0.663, 0.163653